{"data":{"norad_id":49000,"intl_designator":"2021-060AK","name":"ONEWEB-0282","alt_names":[],"object_type":"PAYLOAD","status":"ACTIVE","operator":null,"country":"UK","launch_date":"2021-07-01","launch_site_code":"VOSTO","launch_vehicle":null,"mission":null,"orbit_class":"UNKNOWN","rcs_meters":null,"size_class":null,"mass_kg":null,"dimensions":null,"purposes":["comms"],"wikipedia_slug":null,"has_3d_model":false,"image_url":null,"decayed_at":null,"tle_current":{"epoch":"2026-09-19T15:16:46.952256Z","epoch_age_seconds":96618,"freshness":"FRESH","line1":"1 49000U 21060AK  26262.63665454  .00000031  00000+0  46748-4 0  9995","line2":"2 49000  87.9156 210.0274 0001951  73.8947 286.2398 13.16595673252037","mean_motion":13.16595673,"eccentricity":0.0001951,"inclination_deg":87.9156,"raan_deg":210.0274,"arg_perigee_deg":73.8947,"mean_anomaly_deg":286.2398,"bstar":4.6748e-5,"rev_number":25203,"period_min":109.37298591593,"perigee_km":1196.2731793773,"apogee_km":1199.2292909666,"semimajor_km":7575.8882351719,"source":"CELESTRAK","updated_at":"2026-09-20T09:00:44.629915Z"}}}